#timestamp,LO_Frequency,Hit,StdDev 
1516777215.2,286046993.8,Y
1516777235.0,286047002.1,P
1516777235.9,286047002.1,N
1516777255.8,286047003.0,N
1516777275.6,286047004.2,N
1516777295.4,286047005.1,N
1516777315.3,286047006.6,N
1516777335.1,286047007.0,N
1516777355.9,286047006.7,N
1516777375.7,286047005.1,N
1516777395.5,286047011.4,Y
1516777415.4,286047005.2,P
1516777435.2,286047001.6,N
1516777455.0,286047002.1,N
1516777455.9,286047002.1,N
1516777475.8,286047001.6,N
1516777495.6,286047002.1,N
1516777515.5,286046999.1,N
1516777535.3,286046997.0,N
1516777555.1,286046997.3,N
1516777575.9,286046995.1,N
1516777595.7,286046995.3,N
1516777615.5,286046996.9,N
1516777635.4,286047001.8,N
1516777655.2,286047005.4,N
1516777675.1,286047001.3,N
1516777676.0,286047001.3,N
1516777695.8,286047002.3,N
1516777715.6,286047004.3,N
1516777735.5,286047002.5,N
1516777755.3,286047002.2,N
1516777775.1,286047002.0,N
1516777795.9,286047002.5,N
1516777815.7,286047001.4,N
1516777835.6,286047004.4,N
1516777855.4,286047004.3,N
1516777875.2,286047000.4,N
1516777895.1,286047002.5,N
1516777896.0,286047002.5,N
1516777915.8,286047000.1,N
1516777935.6,286046999.9,N
1516777955.5,286046998.2,N
1516777975.3,286047002.1,N
1516777995.2,286047004.1,N
1516778015.9,286047000.8,N
1516778035.7,286046998.3,N
1516778055.6,286047000.8,N
1516778075.4,286047000.5,N
1516778095.2,286046998.6,N
1516778115.1,286047000.8,N
1516778116.0,286047000.8,N
1516778135.8,286046996.9,N
1516778155.7,286046999.9,N
1516778175.5,286047002.0,N
1516778195.3,286046999.0,N
1516778215.2,286046996.9,N
1516778235.0,286046997.8,N
1516778235.9,286046997.8,N
1516778255.8,286046997.0,N
1516778275.6,286046996.7,N
1516778295.4,286047011.9,Y
1516778315.3,286046996.1,P
1516778335.1,286046997.5,N
1516778355.8,286046999.0,N
1516778375.7,286046999.6,N
1516778395.5,286046997.3,N
1516778415.4,286046996.8,N
1516778435.2,286046995.5,Y
1516778455.0,286046998.4,P
1516778455.9,286046998.4,P
1516778475.8,286046998.8,P
1516778495.6,286047001.0,Y
1516778515.5,286046998.1,P
1516778535.3,286047001.9,P
1516778555.1,286047003.5,N
1516778575.9,286047004.1,N
1516778595.7,286047005.1,N
1516778615.5,286047005.0,N
1516778635.4,286047005.9,N
1516778655.2,286047002.0,N
1516778675.1,286047003.9,N
1516778676.0,286047003.9,N
1516778695.8,286047004.3,N
1516778715.6,286047002.4,N
1516778735.5,286047001.4,N
1516778755.3,286047001.9,N
1516778775.1,286047005.8,N
1516778795.9,286047004.8,N
1516778815.7,286047008.2,Y
1516778835.6,286046998.8,P
1516778855.4,286046995.8,N
1516778875.2,286046998.7,N
1516778895.1,286047000.6,N
1516778896.0,286047000.6,N
1516778915.8,286046998.4,N
1516778935.7,286046997.1,N
1516778955.5,286046999.8,N
1516778975.3,286046996.7,N
1516778995.2,286046999.5,N
1516779015.9,286046995.1,N
1516779035.7,286046998.0,N
1516779055.6,286046995.3,N
1516779075.4,286046993.9,N
1516779095.3,286046990.4,Y
1516779115.1,286046996.3,P
1516779116.0,286046996.3,P
1516779135.8,286046995.8,P
1516779155.7,286046999.2,N
1516779175.5,286046997.7,N
1516779195.3,286046998.0,N
1516779215.2,286046995.7,Y
1516779235.0,286046998.4,P
1516779235.9,286046998.4,P
1516779255.8,286047000.9,N
1516779275.6,286046997.1,N
1516779295.4,286046999.1,N
1516779315.3,286046998.9,N
1516779335.1,286047002.7,N
1516779355.9,286047002.9,N
1516779375.7,286047001.7,N
1516779395.5,286047002.1,N
1516779415.4,286047000.3,N
1516779435.2,286047005.2,N
1516779455.0,286047001.5,N
1516779455.9,286047001.5,N
1516779475.8,286047002.8,N
1516779495.6,286047003.8,N
1516779515.5,286047007.7,Y
1516779535.3,286047009.2,P
1516779555.1,286047013.5,P
1516779575.9,286047012.7,N
1516779595.7,286047013.9,N
1516779615.5,286047007.8,N
1516779635.4,286047008.9,N
1516779655.2,286047007.2,N
1516779675.1,286047003.2,N
1516779676.0,286047003.2,N
1516779695.8,286047002.7,N
1516779715.6,286047000.5,N
1516779735.5,286047000.9,N
1516779755.3,286047003.9,N
1516779775.1,286047007.5,N
1516779795.9,286047008.2,N
1516779815.7,286047006.2,N
1516779835.6,286047005.0,N
1516779855.4,286047004.4,N
1516779875.2,286047004.0,N
1516779895.1,286046998.1,N
1516779896.0,286046998.1,N
1516779915.8,286047001.1,N
1516779935.6,286046998.2,N
1516779955.5,286046999.2,N
1516779975.3,286046997.5,N
1516779995.2,286046993.7,N
1516780015.9,286046995.4,N
1516780035.7,286046997.4,N
1516780055.6,286046995.1,N
1516780075.4,286046999.6,N
1516780095.2,286046999.5,N
1516780115.1,286046996.5,N
1516780116.0,286046996.5,N
1516780135.8,286047000.8,N
1516780155.7,286047003.7,N
1516780175.5,286047002.2,N
1516780195.3,286046998.1,N
1516780215.2,286047002.0,N
1516780235.0,286046998.1,N
1516780235.9,286046998.1,N
1516780255.7,286046998.6,N
1516780275.6,286047002.3,N
1516780295.4,286047002.2,N
1516780315.3,286047000.8,N
1516780335.1,286046998.2,N
1516780336.0,286046998.2,N
1516780355.8,286046998.5,N
1516780375.7,286046998.0,N
1516780395.5,286046994.0,N
1516780415.4,286046995.6,N
1516780435.2,286046993.7,N
1516780455.0,286046995.3,N
1516780455.9,286046995.3,N
1516780475.8,286046999.6,N
1516780495.6,286046997.0,N
1516780515.4,286046996.9,N
1516780535.3,286046998.6,N
1516780555.1,286047000.3,N
1516780575.9,286046996.6,N
1516780595.7,286046998.9,N
1516780615.5,286046999.2,N
1516780635.4,286046998.5,N
1516780655.2,286046996.7,N
1516780675.0,286046997.4,N
1516780675.9,286046997.4,N
1516780695.8,286046997.6,N
1516780715.6,286047000.4,N
1516780735.5,286047002.4,N
1516780755.3,286046998.7,N
1516780775.1,286047001.1,N
1516780795.9,286047000.5,N
